#�ϑ�����,���ϕ���,���ϕ���,�ő啗��,�ő啗����������,�ő�u�ԕ���,�ő�u�ԕ�����������
#(�N����),(m/s)   ,(16����),(m/s)   ,(16����)        ,(m/s)       ,(16����)            
2018/7/9 0:01,1.8,3,1.8,3,2.9,3
2018/7/9 0:02,2,3,2,3,3.7,3
2018/7/9 0:03,2.1,3,2.1,3,3.7,3
2018/7/9 0:04,2.1,3,2.1,3,2.7,2
2018/7/9 0:05,2.1,3,2.1,3,4.2,3
2018/7/9 0:06,2.2,3,2.2,3,3.9,3
2018/7/9 0:07,2.3,3,2.3,3,4.1,2
2018/7/9 0:08,2.4,3,2.4,3,3.8,3
2018/7/9 0:09,2.4,2,2.4,3,3.8,3
2018/7/9 0:10,2.4,2,2.4,3,3.5,3
2018/7/9 0:11,2.5,2,2.5,2,3.9,2
2018/7/9 0:12,2.6,2,2.6,2,4.9,3
2018/7/9 0:13,2.5,2,2.6,2,3.2,3
2018/7/9 0:14,2.6,2,2.6,2,2.9,4
2018/7/9 0:15,2.5,2,2.6,2,2.9,2
2018/7/9 0:16,2.4,2,2.5,2,2.9,1
2018/7/9 0:17,2.4,2,2.4,2,3.7,2
2018/7/9 0:18,2.3,2,2.4,2,3.9,3
2018/7/9 0:19,2.2,2,2.3,2,3.2,3
2018/7/9 0:20,2.3,2,2.3,2,4.7,2
2018/7/9 0:21,2.2,2,2.3,2,2.2,2
2018/7/9 0:22,2,2,2.2,2,3.9,2
2018/7/9 0:23,2,2,2,2,3,3
2018/7/9 0:24,2,2,2,2,3.6,2
2018/7/9 0:25,2,2,2,2,4.3,2
2018/7/9 0:26,2,2,2,2,3.3,3
2018/7/9 0:27,1.9,2,2,2,2.9,2
2018/7/9 0:28,1.9,2,2,2,2.7,2
2018/7/9 0:29,2,2,2,2,2.7,2
2018/7/9 0:30,1.9,2,2,2,3.6,3
2018/7/9 0:31,2,2,2,2,3.9,3
2018/7/9 0:32,2.1,2,2.1,2,4.4,3
2018/7/9 0:33,2.2,2,2.2,2,4.1,3
2018/7/9 0:34,2.4,2,2.4,2,4.4,5
2018/7/9 0:35,2.4,2,2.5,2,3.3,2
2018/7/9 0:36,2.5,2,2.5,2,3.2,3
2018/7/9 0:37,2.4,2,2.5,2,2.5,3
2018/7/9 0:38,2.5,3,2.5,2,3.1,3
2018/7/9 0:39,2.5,3,2.5,2,3.3,4
2018/7/9 0:40,2.5,3,2.5,2,4.1,3
2018/7/9 0:41,2.5,3,2.5,2,4.1,3
2018/7/9 0:42,2.4,3,2.5,2,3,2
2018/7/9 0:43,2.3,3,2.4,2,2.9,2
2018/7/9 0:44,2.1,3,2.3,2,3,2
2018/7/9 0:45,2.1,3,2.1,2,2.6,2
2018/7/9 0:46,2,2,2,2,2.4,1
2018/7/9 0:47,2,2,2,3,3.7,3
2018/7/9 0:48,2,2,2.1,3,3.8,2
2018/7/9 0:49,2.1,2,2.1,3,3.3,3
2018/7/9 0:50,2.1,2,2.1,3,3.9,2
2018/7/9 0:51,2,2,2.1,3,3.9,16
2018/7/9 0:52,2,2,2.1,3,3.6,2
2018/7/9 0:53,2.1,2,2.1,3,2.9,1
2018/7/9 0:54,2.1,2,2.1,3,3.3,2
2018/7/9 0:55,2,2,2.1,2,2.7,1
2018/7/9 0:56,2.1,2,2.1,2,3,2
2018/7/9 0:57,2,2,2,2,2.6,2
2018/7/9 0:58,2,2,2,2,2.4,1
2018/7/9 0:59,2,2,2,2,3,3
2018/7/9 1:00,1.8,2,1.9,2,2.5,1
2018/7/9 1:01,1.7,2,1.8,2,2.5,2
2018/7/9 1:02,1.7,2,1.8,2,3.2,3
2018/7/9 1:03,1.7,2,1.8,2,2.6,2
2018/7/9 1:04,1.8,2,1.8,2,3.3,2
2018/7/9 1:05,1.8,2,1.8,2,2.6,4
2018/7/9 1:06,1.9,2,1.9,2,2.7,3
2018/7/9 1:07,1.9,3,1.9,2,2.4,3
2018/7/9 1:08,2,3,2,2,3.7,2
2018/7/9 1:09,1.9,3,2,3,2.5,3
2018/7/9 1:10,2.1,3,2.1,3,5,3
2018/7/9 1:11,2.4,3,2.4,3,6.2,3
2018/7/9 1:12,2.4,3,2.4,3,3.3,4
2018/7/9 1:13,2.3,3,2.4,3,2.2,2
2018/7/9 1:14,2.2,3,2.3,3,2.5,4
2018/7/9 1:15,2.2,3,2.2,3,2.4,4
2018/7/9 1:16,2.2,3,2.2,3,2.7,4
2018/7/9 1:17,2.2,3,2.2,3,3.3,4
2018/7/9 1:18,2.2,3,2.2,3,3.3,3
2018/7/9 1:19,2.2,3,2.3,3,2.7,3
2018/7/9 1:20,2.2,3,2.2,3,3.9,3
2018/7/9 1:21,2,2,2.2,3,4.1,3
2018/7/9 1:22,2.1,2,2.1,3,4.7,2
2018/7/9 1:23,2.3,3,2.3,3,4.5,3
2018/7/9 1:24,2.5,2,2.5,3,4.7,3
2018/7/9 1:25,2.6,3,2.6,3,4.3,3
2018/7/9 1:26,2.7,3,2.7,3,5.5,2
2018/7/9 1:27,2.8,2,2.8,2,4.1,3
2018/7/9 1:28,2.8,2,2.8,2,4.7,2
2018/7/9 1:29,2.9,2,2.9,2,3.7,3
2018/7/9 1:30,2.8,2,2.9,2,4.7,2
2018/7/9 1:31,2.8,2,2.8,2,3.9,4
2018/7/9 1:32,2.7,2,2.8,2,3.1,2
2018/7/9 1:33,2.6,2,2.7,2,3,2
2018/7/9 1:34,2.5,2,2.6,2,4.2,3
2018/7/9 1:35,2.4,2,2.5,2,3,2
2018/7/9 1:36,2.3,2,2.4,2,3.6,2
2018/7/9 1:37,2.4,2,2.4,2,3.7,3
2018/7/9 1:38,2.2,2,2.4,2,1.9,2
2018/7/9 1:39,2.1,2,2.2,2,1.8,2
2018/7/9 1:40,2,2,2,2,2.5,2
2018/7/9 1:41,2,2,2,2,3.5,3
2018/7/9 1:42,2,3,2,2,2.7,3
2018/7/9 1:43,2,3,2,2,3,2
2018/7/9 1:44,1.9,2,2,2,2.9,2
2018/7/9 1:45,1.9,2,1.9,2,2.9,2
2018/7/9 1:46,1.8,2,1.9,2,3.7,2
2018/7/9 1:47,1.7,2,1.8,2,3.7,3
2018/7/9 1:48,1.8,2,1.8,2,2.5,2
2018/7/9 1:49,1.8,2,1.8,2,3.2,2
2018/7/9 1:50,1.9,2,1.9,2,3.7,4
2018/7/9 1:51,1.8,2,1.9,2,3,3
2018/7/9 1:52,1.8,2,1.8,3,3.7,1
2018/7/9 1:53,1.8,2,1.8,3,4.5,2
2018/7/9 1:54,1.9,2,1.9,2,3.7,3
2018/7/9 1:55,1.9,2,1.9,2,3.7,1
2018/7/9 1:56,1.9,2,2,2,2.7,1
2018/7/9 1:57,1.9,2,1.9,2,3,2
2018/7/9 1:58,1.9,2,1.9,2,2.7,3
2018/7/9 1:59,1.9,2,1.9,2,3.6,2
2018/7/9 2:00,1.9,2,1.9,2,3.7,3
2018/7/9 2:01,1.9,2,1.9,2,2.4,1
2018/7/9 2:02,1.8,2,1.9,2,2.7,3
2018/7/9 2:03,1.8,2,1.8,2,3,2
2018/7/9 2:04,1.7,2,1.8,2,4.7,1
2018/7/9 2:05,1.6,2,1.7,2,3.1,1
2018/7/9 2:06,1.7,2,1.7,2,3.2,16
2018/7/9 2:07,1.8,2,1.8,2,3.2,2
2018/7/9 2:08,1.8,2,1.8,2,3.5,2
2018/7/9 2:09,1.8,2,1.8,2,2.6,1
2018/7/9 2:10,1.8,2,1.8,2,3.2,2
2018/7/9 2:11,1.9,2,1.9,2,3.1,2
2018/7/9 2:12,1.9,2,1.9,2,3,2
2018/7/9 2:13,2,2,2,2,3,16
2018/7/9 2:14,2,2,2,2,2.7,2
2018/7/9 2:15,2,2,2,2,2.7,2
2018/7/9 2:16,2,2,2,2,3.6,3
2018/7/9 2:17,2,2,2,2,2.9,3
2018/7/9 2:18,2,2,2,2,3.7,3
2018/7/9 2:19,2.1,2,2.1,2,3.2,3
2018/7/9 2:20,2.1,2,2.1,2,3.8,3
2018/7/9 2:21,2.3,2,2.3,2,4.5,3
2018/7/9 2:22,2.4,2,2.4,2,3.9,3
2018/7/9 2:23,2.4,3,2.4,2,3.1,3
2018/7/9 2:24,2.4,3,2.4,2,2.4,3
2018/7/9 2:25,2.4,3,2.4,2,2.1,1
2018/7/9 2:26,2.4,3,2.4,2,2.6,4
2018/7/9 2:27,2.4,3,2.4,2,3.9,3
2018/7/9 2:28,2.4,3,2.4,2,3.9,3
2018/7/9 2:29,2.4,3,2.4,2,3.5,3
2018/7/9 2:30,2.5,3,2.5,3,4.5,3
2018/7/9 2:31,2.4,3,2.5,3,4.7,3
2018/7/9 2:32,2.3,3,2.4,3,3.7,2
2018/7/9 2:33,2.4,3,2.4,3,5.2,3
2018/7/9 2:34,2.4,3,2.4,3,3.5,3
2018/7/9 2:35,2.5,3,2.5,3,4.8,3
2018/7/9 2:36,2.6,3,2.6,3,4.9,3
2018/7/9 2:37,2.5,2,2.6,3,3.3,3
2018/7/9 2:38,2.5,2,2.5,3,4.3,3
2018/7/9 2:39,2.7,3,2.7,3,5,4
2018/7/9 2:40,2.6,3,2.7,3,4.9,4
2018/7/9 2:41,2.5,3,2.6,3,3.1,3
2018/7/9 2:42,2.6,3,2.6,3,4.5,3
2018/7/9 2:43,2.6,3,2.6,3,4.5,3
2018/7/9 2:44,2.6,3,2.6,3,4.2,2
2018/7/9 2:45,2.7,3,2.7,3,4.5,3
2018/7/9 2:46,2.7,3,2.7,3,4.3,3
2018/7/9 2:47,2.7,3,2.7,3,3.5,4
2018/7/9 2:48,2.6,3,2.7,3,4.3,3
2018/7/9 2:49,2.6,2,2.6,3,5.1,3
2018/7/9 2:50,2.7,2,2.7,3,5.7,2
2018/7/9 2:51,2.7,2,2.7,3,4.2,2
2018/7/9 2:52,2.7,2,2.7,3,5.2,3
2018/7/9 2:53,2.7,2,2.8,2,5.2,3
2018/7/9 2:54,2.8,2,2.8,2,4.2,1
2018/7/9 2:55,2.8,2,2.8,2,4.3,3
2018/7/9 2:56,2.8,2,2.8,2,4.4,3
2018/7/9 2:57,2.9,2,2.9,2,4.7,3
2018/7/9 2:58,3,3,3,3,4.4,3
2018/7/9 2:59,2.9,2,2.9,3,4.4,3
2018/7/9 3:00,3,3,3,3,6.7,4
2018/7/9 3:01,3.1,3,3.1,3,5.1,3
2018/7/9 3:02,3.1,3,3.2,3,6.7,3
2018/7/9 3:03,3.3,3,3.3,3,5.1,3
2018/7/9 3:04,3.4,3,3.4,3,5.6,2
2018/7/9 3:05,3.5,3,3.5,3,5.4,2
2018/7/9 3:06,3.5,3,3.5,3,4.3,3
2018/7/9 3:07,3.4,2,3.5,3,4.9,2
2018/7/9 3:08,3.4,2,3.4,3,4.8,2
2018/7/9 3:09,3.4,2,3.5,3,4.2,3
2018/7/9 3:10,3.4,2,3.5,3,6.7,3
2018/7/9 3:11,3.3,2,3.4,3,5.1,3
2018/7/9 3:12,3.3,2,3.3,3,4.1,3
2018/7/9 3:13,3.1,2,3.3,3,5.1,2
2018/7/9 3:14,2.9,2,3.1,3,4.1,3
2018/7/9 3:15,2.8,2,2.9,3,4.2,3
2018/7/9 3:16,2.7,2,2.8,3,4.1,3
2018/7/9 3:17,2.8,2,2.8,2,5.1,2
2018/7/9 3:18,2.8,2,2.9,2,4.9,3
2018/7/9 3:19,2.9,2,2.9,2,5,4
2018/7/9 3:20,2.8,2,2.9,2,4.7,4
2018/7/9 3:21,2.8,2,2.8,2,5.5,4
2018/7/9 3:22,2.9,2,2.9,2,5,3
2018/7/9 3:23,2.8,2,2.9,2,3.8,3
2018/7/9 3:24,2.8,2,2.8,2,4.5,3
2018/7/9 3:25,3,2,3,2,4.2,3
2018/7/9 3:26,3,3,3,2,5.6,3
2018/7/9 3:27,3,3,3.1,3,4.4,3
2018/7/9 3:28,3,3,3,3,3.9,4
2018/7/9 3:29,2.9,3,3,3,4.4,2
2018/7/9 3:30,2.9,3,2.9,3,4.3,3
2018/7/9 3:31,2.9,3,2.9,3,3.7,3
2018/7/9 3:32,2.7,3,2.8,3,3.2,3
2018/7/9 3:33,2.8,3,2.8,3,3.8,3
2018/7/9 3:34,2.8,3,2.8,3,3.8,3
2018/7/9 3:35,2.7,3,2.7,3,3.6,2
2018/7/9 3:36,2.7,3,2.7,3,4.5,3
2018/7/9 3:37,2.7,3,2.7,3,4.8,3
2018/7/9 3:38,2.8,3,2.8,3,6.1,3
2018/7/9 3:39,2.8,3,2.9,3,3.9,3
2018/7/9 3:40,2.8,3,2.8,3,3.1,3
2018/7/9 3:41,2.8,3,2.8,3,3.5,3
2018/7/9 3:42,2.7,3,2.8,3,3,2
2018/7/9 3:43,2.7,3,2.7,3,3.7,3
2018/7/9 3:44,2.7,3,2.7,3,3.7,2
2018/7/9 3:45,2.7,3,2.7,3,2.7,4
2018/7/9 3:46,2.7,3,2.7,3,4.4,4
2018/7/9 3:47,2.6,3,2.7,3,5.2,3
2018/7/9 3:48,2.6,3,2.7,3,5.1,3
2018/7/9 3:49,2.5,3,2.6,3,4.8,3
2018/7/9 3:50,2.6,3,2.6,3,3.5,2
2018/7/9 3:51,2.6,3,2.6,3,4.3,3
2018/7/9 3:52,2.8,3,2.8,3,4.4,1
2018/7/9 3:53,2.9,3,2.9,3,4.7,2
2018/7/9 3:54,2.8,3,2.9,3,3.7,2
2018/7/9 3:55,2.9,3,2.9,3,3.5,3
2018/7/9 3:56,2.8,3,2.9,3,4.2,3
2018/7/9 3:57,2.7,2,2.8,3,3.7,3
2018/7/9 3:58,2.6,2,2.7,3,4.2,3
2018/7/9 3:59,2.6,3,2.7,3,3.2,4
2018/7/9 4:00,2.6,3,2.6,3,3.5,3
2018/7/9 4:01,2.5,2,2.6,3,3,3
2018/7/9 4:02,2.4,2,2.5,3,3.2,3
2018/7/9 4:03,2.2,2,2.4,3,2.9,3
2018/7/9 4:04,2.2,2,2.2,3,3,2
2018/7/9 4:05,2.2,2,2.2,3,3.5,3
2018/7/9 4:06,2.2,2,2.2,3,3.7,3
2018/7/9 4:07,2.3,3,2.3,2,3.9,3
2018/7/9 4:08,2.2,3,2.3,2,3.2,4
2018/7/9 4:09,2.1,3,2.2,3,2.4,4
2018/7/9 4:10,2,3,2.1,3,2.1,3
2018/7/9 4:11,2,3,2,2,3.9,4
2018/7/9 4:12,2,3,2,2,2.7,4
2018/7/9 4:13,2,3,2,3,3.1,2
2018/7/9 4:14,2,3,2,3,2.6,2
2018/7/9 4:15,1.9,3,2,3,2.6,4
2018/7/9 4:16,1.8,2,1.9,3,3.1,2
2018/7/9 4:17,1.8,2,1.9,3,3.2,3
2018/7/9 4:18,1.8,2,1.8,3,3.1,3
2018/7/9 4:19,1.8,2,1.8,3,3,3
2018/7/9 4:20,1.9,2,1.9,3,2.5,4
2018/7/9 4:21,1.9,2,1.9,3,2.9,4
2018/7/9 4:22,2,2,2,3,3.2,3
2018/7/9 4:23,2,2,2,3,2.2,3
2018/7/9 4:24,1.9,2,1.9,3,3,3
2018/7/9 4:25,1.9,2,1.9,2,2,3
2018/7/9 4:26,1.9,2,1.9,2,2.4,1
2018/7/9 4:27,1.8,2,1.8,2,2.7,2
2018/7/9 4:28,1.8,2,1.8,2,3.5,3
2018/7/9 4:29,1.8,2,1.8,2,3.2,3
2018/7/9 4:30,1.9,2,1.9,2,3,3
2018/7/9 4:31,1.8,2,1.9,2,2,3
2018/7/9 4:32,1.7,2,1.7,2,2.6,3
2018/7/9 4:33,1.7,2,1.7,2,3.1,2
2018/7/9 4:34,1.7,2,1.7,2,3.5,3
2018/7/9 4:35,1.9,2,1.9,2,3.7,2
2018/7/9 4:36,2,2,2,2,4.3,2
2018/7/9 4:37,2,2,2,2,3.2,3
2018/7/9 4:38,2,2,2,2,3.3,2
2018/7/9 4:39,2,2,2,2,3.7,3
2018/7/9 4:40,2.1,2,2.1,2,4.1,2
2018/7/9 4:41,2.2,2,2.2,2,4.3,3
2018/7/9 4:42,2.3,2,2.3,2,4.3,2
2018/7/9 4:43,2.4,2,2.4,2,5,2
2018/7/9 4:44,2.5,2,2.5,2,4.8,2
2018/7/9 4:45,2.5,2,2.5,2,4.1,3
2018/7/9 4:46,2.5,2,2.5,2,4.7,4
2018/7/9 4:47,2.6,2,2.6,2,3.6,3
2018/7/9 4:48,2.7,2,2.7,2,3.9,3
2018/7/9 4:49,2.7,2,2.7,2,3.8,3
2018/7/9 4:50,2.6,2,2.7,2,3.5,3
2018/7/9 4:51,2.6,3,2.6,2,2.7,3
2018/7/9 4:52,2.5,3,2.6,2,2.2,3
2018/7/9 4:53,2.4,3,2.5,2,1.8,2
2018/7/9 4:54,2.2,3,2.3,2,2.1,1
2018/7/9 4:55,2.1,3,2.1,2,3,3
2018/7/9 4:56,2,3,2.1,2,2.4,3
2018/7/9 4:57,1.9,3,1.9,2,1.6,2
2018/7/9 4:58,1.7,3,1.8,2,2.1,3
2018/7/9 4:59,1.6,3,1.7,2,1.5,3
2018/7/9 5:00,1.5,3,1.6,2,2,3
2018/7/9 5:01,1.4,2,1.5,3,2.6,1
2018/7/9 5:02,1.4,2,1.4,3,2.5,3
2018/7/9 5:03,1.5,2,1.5,3,3.6,1
2018/7/9 5:04,1.5,2,1.5,3,2.4,2
2018/7/9 5:05,1.4,2,1.5,3,1.6,2
2018/7/9 5:06,1.3,2,1.4,3,1.3,3
2018/7/9 5:07,1.3,2,1.3,3,1.6,4
2018/7/9 5:08,1.3,2,1.3,3,2.7,2
2018/7/9 5:09,1.4,2,1.4,3,2.5,3
2018/7/9 5:10,1.4,2,1.4,3,3.2,3
2018/7/9 5:11,1.4,2,1.4,2,2.6,1
2018/7/9 5:12,1.4,2,1.5,2,3.1,3
2018/7/9 5:13,1.5,2,1.5,2,3.8,2
2018/7/9 5:14,1.5,2,1.6,2,3.1,2
2018/7/9 5:15,1.6,2,1.6,2,3,3
2018/7/9 5:16,1.7,2,1.7,2,3,1
2018/7/9 5:17,1.8,2,1.8,2,3.5,3
2018/7/9 5:18,1.8,2,1.8,2,3.6,2
2018/7/9 5:19,1.8,2,1.8,2,2.6,2
2018/7/9 5:20,1.7,2,1.8,2,2.5,3
2018/7/9 5:21,1.8,2,1.8,2,3.2,4
2018/7/9 5:22,1.7,2,1.8,2,2.2,2
2018/7/9 5:23,1.7,2,1.7,2,3.2,3
2018/7/9 5:24,1.7,2,1.7,2,3.5,2
2018/7/9 5:25,1.7,2,1.7,2,3.3,3
2018/7/9 5:26,1.7,2,1.7,2,3.6,2
2018/7/9 5:27,1.8,2,1.8,2,3.2,4
2018/7/9 5:28,1.8,3,1.8,2,2.5,3
2018/7/9 5:29,1.8,3,1.9,3,2.9,3
2018/7/9 5:30,1.8,3,1.8,3,2.2,3
2018/7/9 5:31,1.7,3,1.8,3,2.2,2
2018/7/9 5:32,1.7,3,1.7,3,2.2,15
2018/7/9 5:33,1.7,2,1.7,3,2.4,1
2018/7/9 5:34,1.6,2,1.7,3,2.5,2
2018/7/9 5:35,1.6,2,1.6,3,2.4,3
2018/7/9 5:36,1.5,2,1.6,3,3,3
2018/7/9 5:37,1.5,2,1.5,3,2.1,3
2018/7/9 5:38,1.5,2,1.5,3,3.1,2
2018/7/9 5:39,1.5,2,1.5,3,2.5,2
2018/7/9 5:40,1.5,2,1.5,3,1.9,2
2018/7/9 5:41,1.5,2,1.5,3,2,4
2018/7/9 5:42,1.5,2,1.5,3,2.1,2
2018/7/9 5:43,1.4,2,1.5,2,1.8,3
2018/7/9 5:44,1.4,2,1.4,2,2,2
2018/7/9 5:45,1.4,2,1.4,2,3,1
2018/7/9 5:46,1.4,2,1.4,2,3.1,2
2018/7/9 5:47,1.5,2,1.5,2,3,3
2018/7/9 5:48,1.6,2,1.6,2,3,3
2018/7/9 5:49,1.6,2,1.6,2,3.2,3
2018/7/9 5:50,1.8,2,1.8,2,3.8,3
2018/7/9 5:51,1.8,2,1.9,2,2.9,3
2018/7/9 5:52,1.8,2,1.8,2,2.2,2
2018/7/9 5:53,1.8,2,1.8,2,2.5,2
2018/7/9 5:54,1.9,2,1.9,2,2.2,3
2018/7/9 5:55,1.9,2,1.9,2,2.2,3
2018/7/9 5:56,1.8,2,1.8,2,2.4,3
2018/7/9 5:57,1.8,2,1.8,2,2.7,3
2018/7/9 5:58,1.7,2,1.8,2,2.7,2
2018/7/9 5:59,1.6,2,1.7,2,2.1,3
2018/7/9 6:00,1.4,2,1.6,2,2.4,2
2018/7/9 6:01,1.4,2,1.4,2,1.8,2
2018/7/9 6:02,1.5,2,1.5,2,2.1,2
2018/7/9 6:03,1.5,2,1.5,2,2,3
2018/7/9 6:04,1.5,2,1.5,2,2.5,3
2018/7/9 6:05,1.5,2,1.5,2,3,3
2018/7/9 6:06,1.6,2,1.6,2,3.6,3
2018/7/9 6:07,1.6,2,1.6,2,3.5,2
2018/7/9 6:08,1.6,2,1.6,2,3.3,3
2018/7/9 6:09,1.8,2,1.8,2,3.9,3
2018/7/9 6:10,1.9,2,1.9,2,3.7,2
2018/7/9 6:11,2,2,2,2,3.7,3
2018/7/9 6:12,2.1,3,2.1,3,3,3
2018/7/9 6:13,2.2,3,2.2,3,3.1,3
2018/7/9 6:14,2.4,3,2.4,3,4.5,3
2018/7/9 6:15,2.5,3,2.5,3,4.2,3
2018/7/9 6:16,2.6,3,2.6,3,3.7,3
2018/7/9 6:17,2.6,3,2.6,3,3.1,3
2018/7/9 6:18,2.6,3,2.6,3,3.8,2
2018/7/9 6:19,2.6,3,2.7,3,5.1,3
2018/7/9 6:20,2.8,3,2.8,3,4.7,3
2018/7/9 6:21,2.8,3,2.8,3,3.7,2
2018/7/9 6:22,2.7,3,2.8,3,2.5,1
2018/7/9 6:23,2.6,3,2.7,3,2.7,2
2018/7/9 6:24,2.5,2,2.7,3,3.2,4
2018/7/9 6:25,2.3,2,2.5,3,2.4,1
2018/7/9 6:26,2.3,2,2.3,3,3.8,2
2018/7/9 6:27,2.2,2,2.3,3,2.7,3
2018/7/9 6:28,2.3,2,2.3,3,4.5,2
2018/7/9 6:29,2.1,2,2.2,3,3.6,2
2018/7/9 6:30,1.9,2,2.1,3,3,4
2018/7/9 6:31,1.8,2,1.9,3,3.8,2
2018/7/9 6:32,2,2,2,3,4.8,1
2018/7/9 6:33,2,2,2,2,4.5,5
2018/7/9 6:34,2,2,2,2,2.4,2
2018/7/9 6:35,2,2,2,2,3.2,2
2018/7/9 6:36,2,2,2.1,2,3.6,2
2018/7/9 6:37,2.1,2,2.1,2,3.1,2
2018/7/9 6:38,2,2,2.1,2,3,2
2018/7/9 6:39,2,2,2,2,2.6,3
2018/7/9 6:40,2,2,2,2,2.7,3
2018/7/9 6:41,2,2,2,2,1.6,3
2018/7/9 6:42,1.8,2,2,2,1.6,1
2018/7/9 6:43,1.7,2,1.8,2,1.8,2
2018/7/9 6:44,1.6,2,1.7,2,2,2
2018/7/9 6:45,1.7,2,1.7,2,2.9,2
2018/7/9 6:46,1.6,2,1.6,2,2.2,3
2018/7/9 6:47,1.6,2,1.6,2,2.5,3
2018/7/9 6:48,1.6,2,1.6,2,2.7,4
2018/7/9 6:49,1.7,2,1.7,2,3.9,3
2018/7/9 6:50,1.7,3,1.7,2,3.2,4
2018/7/9 6:51,1.8,3,1.8,2,3.5,4
2018/7/9 6:52,1.8,3,1.9,3,2.2,3
2018/7/9 6:53,1.9,3,1.9,3,2,2
2018/7/9 6:54,1.9,3,1.9,3,2.2,3
2018/7/9 6:55,1.7,3,1.9,3,1.5,5
2018/7/9 6:56,1.7,3,1.7,3,2.2,5
2018/7/9 6:57,1.8,3,1.8,3,2.2,4
2018/7/9 6:58,1.8,3,1.8,3,2.5,3
2018/7/9 6:59,1.6,3,1.7,3,2.5,2
2018/7/9 7:00,1.6,3,1.6,3,2.7,4
2018/7/9 7:01,1.7,3,1.7,3,3.9,4
2018/7/9 7:02,1.7,3,1.7,3,2.6,4
2018/7/9 7:03,1.8,3,1.8,3,3.5,4
2018/7/9 7:04,1.9,3,1.9,3,3.5,2
2018/7/9 7:05,2,3,2,3,4.2,3
2018/7/9 7:06,2.1,3,2.1,3,3.2,3
2018/7/9 7:07,2.1,3,2.1,3,3.3,3
2018/7/9 7:08,2.1,3,2.1,3,3,3
2018/7/9 7:09,2.2,3,2.2,3,2.4,2
2018/7/9 7:10,2.1,3,2.1,3,2,3
2018/7/9 7:11,2,3,2.1,3,3,4
2018/7/9 7:12,2.1,3,2.1,3,3.5,3
2018/7/9 7:13,2.1,3,2.1,3,2.5,4
2018/7/9 7:14,2,3,2.1,3,2.6,3
2018/7/9 7:15,2,3,2,3,2.9,3
2018/7/9 7:16,1.9,3,2,3,2.7,16
2018/7/9 7:17,1.8,3,1.9,3,3,4
2018/7/9 7:18,1.8,3,1.8,3,3,3
2018/7/9 7:19,1.8,3,1.8,3,3,2
2018/7/9 7:20,1.9,2,1.9,3,3,2
2018/7/9 7:21,1.9,2,1.9,3,3.8,3
2018/7/9 7:22,1.8,2,1.9,3,2.6,1
2018/7/9 7:23,1.9,2,1.9,3,3.8,3
2018/7/9 7:24,2,2,2,3,4.7,3
2018/7/9 7:25,2,2,2,3,2.9,3
2018/7/9 7:26,2.1,2,2.1,2,3,3
2018/7/9 7:27,2.1,2,2.1,2,3.1,3
2018/7/9 7:28,2.1,2,2.1,2,2.7,3
2018/7/9 7:29,2,2,2.1,2,2.7,2
2018/7/9 7:30,2.1,2,2.1,2,2.6,2
2018/7/9 7:31,2,2,2.1,2,2.5,2
2018/7/9 7:32,2,2,2,2,3.7,3
2018/7/9 7:33,2,2,2.1,2,3.8,3
2018/7/9 7:34,1.9,2,2,2,2.4,3
2018/7/9 7:35,1.8,2,1.8,2,2.6,2
2018/7/9 7:36,1.8,2,1.9,2,2.9,3
2018/7/9 7:37,1.8,2,1.8,2,3.1,3
2018/7/9 7:38,1.7,2,1.8,2,2.6,4
2018/7/9 7:39,1.8,2,1.8,2,4.3,3
2018/7/9 7:40,1.9,2,1.9,2,4.5,4
2018/7/9 7:41,2.1,2,2.1,2,4.5,3
2018/7/9 7:42,2.1,2,2.2,2,4.3,2
2018/7/9 7:43,2.1,2,2.1,2,3,3
2018/7/9 7:44,2.2,2,2.2,2,3.3,3
2018/7/9 7:45,2.3,3,2.3,2,3.2,3
2018/7/9 7:46,2.4,3,2.4,3,3.2,3
2018/7/9 7:47,2.4,3,2.4,3,3.1,4
2018/7/9 7:48,2.5,3,2.5,3,2.2,3
2018/7/9 7:49,2.4,3,2.5,3,2.2,4
2018/7/9 7:50,2.3,3,2.4,3,2.9,3
2018/7/9 7:51,2.2,3,2.3,3,2.4,4
2018/7/9 7:52,2,3,2.2,3,2.2,3
2018/7/9 7:53,2,3,2,3,2,16
2018/7/9 7:54,2,3,2,3,3.8,3
2018/7/9 7:55,2,3,2,3,3.5,3
2018/7/9 7:56,2,3,2,3,3.3,3
2018/7/9 7:57,2.1,3,2.1,3,3.5,4
2018/7/9 7:58,2.1,3,2.1,3,3.1,3
2018/7/9 7:59,2.2,3,2.2,3,3.3,4
2018/7/9 8:00,2.3,3,2.3,3,3.5,3
2018/7/9 8:01,2.3,3,2.3,3,2.7,4
2018/7/9 8:02,2.3,3,2.3,3,2.5,4
2018/7/9 8:03,2.4,3,2.4,3,3.1,5
2018/7/9 8:04,2.4,3,2.5,3,3.5,4
2018/7/9 8:05,2.4,3,2.4,3,3.7,5
2018/7/9 8:06,2.4,4,2.4,3,3.6,5
2018/7/9 8:07,2.3,4,2.4,3,2.7,5
2018/7/9 8:08,2.2,4,2.3,3,2.4,4
2018/7/9 8:09,2.2,4,2.3,3,3.8,4
2018/7/9 8:10,2.1,4,2.2,3,2.7,3
2018/7/9 8:11,2,4,2.1,3,2.7,3
2018/7/9 8:12,2.1,3,2.1,3,3.5,3
2018/7/9 8:13,2.1,3,2.1,3,4.3,2
2018/7/9 8:14,2.3,3,2.3,3,5.6,3
2018/7/9 8:15,2.4,3,2.4,3,5.6,4
2018/7/9 8:16,2.3,3,2.4,4,2.9,3
2018/7/9 8:17,2.3,3,2.3,3,2.7,3
2018/7/9 8:18,2.4,3,2.4,3,3.1,4
2018/7/9 8:19,2.2,3,2.3,3,2.5,3
2018/7/9 8:20,2.2,3,2.2,3,2.2,2
2018/7/9 8:21,2.3,3,2.3,3,2.7,3
2018/7/9 8:22,2.3,3,2.3,3,3.6,3
2018/7/9 8:23,2.3,3,2.3,3,2.9,3
2018/7/9 8:24,1.9,3,2.2,3,2.2,3
2018/7/9 8:25,1.7,3,1.9,3,2.4,3
2018/7/9 8:26,1.7,3,1.7,3,3,3
2018/7/9 8:27,1.7,3,1.7,3,3.2,3
2018/7/9 8:28,1.6,3,1.7,3,2.2,3
2018/7/9 8:29,1.7,3,1.7,3,2.9,3
2018/7/9 8:30,1.9,3,1.9,3,4.7,3
2018/7/9 8:31,2,3,2,3,3.9,3
2018/7/9 8:32,1.9,3,2,3,2.6,4
2018/7/9 8:33,1.9,3,1.9,3,2.4,4
2018/7/9 8:34,1.9,3,1.9,3,2.4,3
2018/7/9 8:35,2.1,3,2.1,3,4.2,2
2018/7/9 8:36,2.2,3,2.2,3,3.6,3
2018/7/9 8:37,2.2,3,2.2,3,3.5,3
2018/7/9 8:38,2.3,3,2.3,3,4.3,3
2018/7/9 8:39,2.4,3,2.4,3,4.1,3
2018/7/9 8:40,2.3,3,2.4,3,3.7,4
2018/7/9 8:41,2.2,3,2.3,3,2.6,3
2018/7/9 8:42,2.1,3,2.2,3,2.6,3
2018/7/9 8:43,2.1,3,2.1,3,2.7,3
2018/7/9 8:44,2.2,3,2.2,3,2.9,2
2018/7/9 8:45,2.1,3,2.2,3,2.9,3
2018/7/9 8:46,2,3,2.1,3,2.2,3
2018/7/9 8:47,1.9,3,2,3,2.6,2
2018/7/9 8:48,1.9,3,2,3,3.6,3
2018/7/9 8:49,1.9,3,1.9,3,3.7,3
2018/7/9 8:50,1.9,3,1.9,3,3.7,1
2018/7/9 8:51,2,3,2,3,3.2,3
2018/7/9 8:52,2,3,2,3,3,3
2018/7/9 8:53,2,2,2,3,3.7,3
2018/7/9 8:54,1.9,2,2,3,2.7,2
2018/7/9 8:55,1.9,2,1.9,3,3.8,2
2018/7/9 8:56,1.9,2,2,3,3.1,3
2018/7/9 8:57,2,2,2,3,3.1,3
2018/7/9 8:58,2,2,2,3,3.6,3
2018/7/9 8:59,2,2,2,3,3.6,2
2018/7/9 9:00,2,2,2,3,3.7,3
2018/7/9 9:01,2.1,2,2.1,2,3.9,3
2018/7/9 9:02,2.2,2,2.2,2,3.6,3
2018/7/9 9:03,2.3,3,2.3,2,3.9,4
2018/7/9 9:04,2.4,3,2.4,3,2.7,4
2018/7/9 9:05,2.3,3,2.4,3,2.4,3
2018/7/9 9:06,2.3,3,2.3,3,2.6,2
2018/7/9 9:07,2.3,3,2.3,3,3.3,3
2018/7/9 9:08,2.3,3,2.3,3,3.1,4
2018/7/9 9:09,2.2,3,2.3,3,3.9,2
2018/7/9 9:10,2.2,3,2.2,3,3.3,1
2018/7/9 9:11,2.1,3,2.2,3,4.2,2
2018/7/9 9:12,2.1,3,2.1,3,3.7,2
2018/7/9 9:13,2,3,2.1,3,3.7,2
2018/7/9 9:14,2,3,2,3,3.6,2
2018/7/9 9:15,2.2,2,2.2,3,4.7,3
2018/7/9 9:16,2.3,3,2.3,3,5.1,3
2018/7/9 9:17,2.4,3,2.4,3,3.6,3
2018/7/9 9:18,2.3,2,2.4,3,3.5,3
2018/7/9 9:19,2.5,3,2.5,3,4.1,4
2018/7/9 9:20,2.5,3,2.5,3,3,3
2018/7/9 9:21,2.4,3,2.5,3,2.7,4
2018/7/9 9:22,2.4,3,2.4,3,4.3,4
2018/7/9 9:23,2.4,3,2.4,3,3.1,4
2018/7/9 9:24,2.3,4,2.4,3,1.8,7
2018/7/9 9:25,2.1,4,2.3,3,2,7
2018/7/9 9:26,2,4,2.1,3,3.6,6
2018/7/9 9:27,2,5,2,3,4.1,6
2018/7/9 9:28,2,5,2,3,3.7,6
2018/7/9 9:29,2,5,2,3,4.9,5
2018/7/9 9:30,2.1,6,2.1,3,4.7,4
2018/7/9 9:31,2.1,6,2.2,3,3.5,5
2018/7/9 9:32,2.2,6,2.2,3,4.2,5
2018/7/9 9:33,2.1,6,2.2,3,2.6,5
2018/7/9 9:34,2.1,6,2.1,4,2.7,7
2018/7/9 9:35,2.3,6,2.3,6,2.7,5
2018/7/9 9:36,2.3,6,2.3,6,2.4,3
2018/7/9 9:37,2.2,5,2.2,6,3.2,4
2018/7/9 9:38,2.2,5,2.3,6,3,4
2018/7/9 9:39,2.1,5,2.2,6,2.5,4
2018/7/9 9:40,1.9,5,2,6,2.2,3
2018/7/9 9:41,2,5,2,6,5.7,6
2018/7/9 9:42,2.1,5,2.1,6,4.5,6
2018/7/9 9:43,2.1,5,2.1,6,3.2,6
2018/7/9 9:44,2.1,5,2.1,6,3.1,8
2018/7/9 9:45,2.2,5,2.2,6,3.7,7
2018/7/9 9:46,2.1,6,2.2,5,3,6
2018/7/9 9:47,2.2,6,2.2,5,3.9,6
2018/7/9 9:48,2.3,6,2.3,6,4.7,6
2018/7/9 9:49,2.6,6,2.6,6,5.8,5
2018/7/9 9:50,2.6,7,2.6,6,4.7,4
2018/7/9 9:51,2.7,6,2.7,7,5,6
2018/7/9 9:52,2.6,6,2.7,7,4.5,4
2018/7/9 9:53,2.7,6,2.7,7,3.5,5
2018/7/9 9:54,2.6,6,2.7,7,1.4,9
2018/7/9 9:55,2.5,6,2.6,7,3.8,7
2018/7/9 9:56,2.6,6,2.6,7,3.7,6
2018/7/9 9:57,2.5,6,2.6,7,4.1,9
2018/7/9 9:58,2.4,6,2.5,7,3.2,7
2018/7/9 9:59,2.3,6,2.4,7,4.1,8
2018/7/9 10:00,2.2,6,2.3,7,3.8,8
2018/7/9 10:01,1.8,7,2.2,6,0.6,10
2018/7/9 10:02,1.6,7,1.8,6,1.6,5
2018/7/9 10:03,1.5,7,1.6,6,1.6,5
2018/7/9 10:04,1.5,7,1.5,6,1.3,7
2018/7/9 10:05,1.5,7,1.5,6,2.2,8
2018/7/9 10:06,1.4,7,1.5,6,3.2,8
2018/7/9 10:07,1.5,7,1.5,6,3.1,8
2018/7/9 10:08,1.6,7,1.6,6,4.7,8
2018/7/9 10:09,1.5,7,1.6,6,5.2,8
2018/7/9 10:10,1.6,8,1.6,6,3.9,8
2018/7/9 10:11,1.8,8,1.8,7,3,9
2018/7/9 10:12,2,8,2,8,2.7,8
2018/7/9 10:13,1.9,8,2,8,2,6
2018/7/9 10:14,1.9,8,1.9,8,0.5,10
2018/7/9 10:15,1.8,8,1.9,8,2,7
2018/7/9 10:16,1.8,8,1.8,8,2.6,7
2018/7/9 10:17,1.8,8,1.8,8,3.6,7
2018/7/9 10:18,1.7,8,1.8,8,4.5,5
2018/7/9 10:19,1.8,7,1.8,8,5.4,6
2018/7/9 10:20,1.9,7,1.9,8,5.1,6
2018/7/9 10:21,2,6,2,8,4.4,5
2018/7/9 10:22,1.9,6,2,8,3.5,8
2018/7/9 10:23,2,6,2,7,3.5,8
2018/7/9 10:24,2.3,6,2.3,6,3.9,8
2018/7/9 10:25,2.5,6,2.5,6,5.4,7
2018/7/9 10:26,2.6,6,2.6,6,5.4,7
2018/7/9 10:27,2.7,6,2.7,6,4.5,7
2018/7/9 10:28,2.5,7,2.7,6,2.5,4
2018/7/9 10:29,2.3,7,2.5,6,2.4,8
2018/7/9 10:30,2.1,7,2.2,6,2.7,9
2018/7/9 10:31,2.1,8,2.1,6,4.4,9
2018/7/9 10:32,2.1,8,2.2,6,3.7,9
2018/7/9 10:33,2.2,8,2.2,6,5.5,8
2018/7/9 10:34,2.2,8,2.2,6,4.9,7
2018/7/9 10:35,2.2,8,2.2,6,4.4,8
2018/7/9 10:36,2.4,8,2.4,6,5.1,7
2018/7/9 10:37,2.3,8,2.4,7,3.9,7
2018/7/9 10:38,2.4,8,2.4,7,4.8,9
2018/7/9 10:39,2.6,8,2.6,8,5.2,8
2018/7/9 10:40,2.7,8,2.7,8,3.7,8
2018/7/9 10:41,2.6,8,2.7,8,3.5,7
2018/7/9 10:42,2.6,8,2.6,8,3.5,7
2018/7/9 10:43,2.5,7,2.6,8,1.9,7
2018/7/9 10:44,2.4,7,2.5,8,2.5,6
2018/7/9 10:45,2.2,7,2.3,8,2,5
2018/7/9 10:46,1.9,7,2.2,8,1.8,10
2018/7/9 10:47,1.9,7,1.9,8,3.5,8
2018/7/9 10:48,1.9,7,1.9,8,3.9,8
2018/7/9 10:49,1.9,7,1.9,8,3.9,6
2018/7/9 10:50,1.7,7,1.9,8,2.1,6
2018/7/9 10:51,1.8,7,1.8,8,2.7,7
2018/7/9 10:52,1.7,6,1.8,8,3.2,5
2018/7/9 10:53,1.7,6,1.7,7,2.4,5
2018/7/9 10:54,1.7,6,1.7,7,2.4,6
2018/7/9 10:55,1.7,6,1.7,7,3.2,5
2018/7/9 10:56,1.7,6,1.8,7,3.1,6
2018/7/9 10:57,1.6,6,1.7,7,3,8
2018/7/9 10:58,1.7,6,1.7,7,4.5,8
2018/7/9 10:59,1.8,6,1.8,7,5.4,8
2018/7/9 11:00,2.1,6,2.1,6,5.7,8
2018/7/9 11:01,2.3,6,2.3,6,5.6,8
2018/7/9 11:02,2.4,7,2.4,7,4.7,7
2018/7/9 11:03,2.5,7,2.5,7,3.6,7
2018/7/9 11:04,2.7,7,2.7,7,5.6,8
2018/7/9 11:05,2.8,8,2.8,7,4.3,8
2018/7/9 11:06,2.9,8,2.9,8,4.1,7
2018/7/9 11:07,3,8,3,8,4.2,7
2018/7/9 11:08,2.9,8,3,8,2.6,7
2018/7/9 11:09,2.7,8,2.8,8,3,8
2018/7/9 11:10,2.4,8,2.7,8,2.5,7
2018/7/9 11:11,2.1,8,2.4,8,1.4,9
2018/7/9 11:12,2,8,2.1,8,3.8,6
2018/7/9 11:13,2,7,2,8,5.1,5
2018/7/9 11:14,2.1,7,2.1,8,4.5,6
2018/7/9 11:15,2.1,7,2.1,8,3.5,7
2018/7/9 11:16,2.1,7,2.2,8,4.9,9
2018/7/9 11:17,2.1,7,2.1,8,3.2,8
2018/7/9 11:18,2.1,7,2.1,8,2.5,8
2018/7/9 11:19,2.1,7,2.1,8,3.2,7
2018/7/9 11:20,2.1,7,2.2,8,3.5,7
2018/7/9 11:21,2.2,7,2.2,7,2.7,5
2018/7/9 11:22,2.2,7,2.2,7,2.6,5
2018/7/9 11:23,2,7,2.2,7,2.2,6
2018/7/9 11:24,1.8,7,2,7,2.2,6
2018/7/9 11:25,1.6,7,1.8,7,1.4,6
2018/7/9 11:26,1.4,7,1.6,7,2.7,8
2018/7/9 11:27,1.5,7,1.5,7,3.8,8
2018/7/9 11:28,1.5,7,1.5,7,3.7,8
2018/7/9 11:29,1.4,7,1.5,7,2.2,7
2018/7/9 11:30,1.5,7,1.5,7,4.4,9
2018/7/9 11:31,1.4,7,1.5,7,2.4,7
2018/7/9 11:32,1.4,8,1.4,7,2,8
2018/7/9 11:33,1.4,8,1.4,7,2.2,8
2018/7/9 11:34,1.4,8,1.4,7,4.9,5
2018/7/9 11:35,1.7,8,1.7,8,5.2,5
2018/7/9 11:36,1.9,7,1.9,7,4.4,5
2018/7/9 11:37,2,7,2,7,4.3,5
2018/7/9 11:38,2.1,7,2.1,7,3.7,8
2018/7/9 11:39,2.4,7,2.4,7,5.6,8
2018/7/9 11:40,2.4,7,2.5,7,4.5,8
2018/7/9 11:41,2.6,7,2.6,7,5.4,8
2018/7/9 11:42,2.7,7,2.7,7,3.5,8
2018/7/9 11:43,3,7,3,7,5.6,8
2018/7/9 11:44,3.2,7,3.2,7,6,6
2018/7/9 11:45,3,7,3.2,7,4.1,9
2018/7/9 11:46,2.9,7,3,7,3.5,8
2018/7/9 11:47,2.8,8,2.9,7,3.5,8
2018/7/9 11:48,2.8,8,2.8,7,3.2,8
2018/7/9 11:49,2.5,8,2.8,7,2.7,6
2018/7/9 11:50,2.5,8,2.5,7,3.5,9
2018/7/9 11:51,2.4,7,2.5,7,3.1,6
2018/7/9 11:52,2.3,7,2.4,7,2.5,6
2018/7/9 11:53,2.1,8,2.3,7,3.7,8
2018/7/9 11:54,1.9,8,2.1,7,3.6,11
2018/7/9 11:55,1.9,8,2,7,4.7,8
2018/7/9 11:56,2,8,2,7,4.7,6
2018/7/9 11:57,2.1,7,2.1,8,4.5,6
2018/7/9 11:58,2.2,7,2.2,8,4.4,7
2018/7/9 11:59,2.2,7,2.3,8,4.4,7
2018/7/9 12:00,2.3,7,2.3,8,4.3,6
2018/7/9 12:01,2.3,7,2.3,7,3.5,4
2018/7/9 12:02,2.4,7,2.4,7,4.4,7
2018/7/9 12:03,2.3,7,2.4,7,3.2,10
2018/7/9 12:04,2.3,7,2.3,7,3.1,6
2018/7/9 12:05,2.3,6,2.3,7,4.3,6
2018/7/9 12:06,2.2,6,2.3,7,2.9,6
2018/7/9 12:07,2.1,6,2.2,7,3,5
2018/7/9 12:08,2,6,2.1,7,3.8,8
2018/7/9 12:09,1.9,6,2,7,2.5,8
2018/7/9 12:10,1.7,7,1.9,7,3.3,9
2018/7/9 12:11,1.8,7,1.8,7,3.9,8
2018/7/9 12:12,1.8,7,1.8,7,3.5,6
2018/7/9 12:13,1.8,7,1.8,7,3,6
2018/7/9 12:14,1.8,6,1.8,7,2.5,5